User: anonymous   Login
Location: Unspecified
(0.0000°N, 0.0000°E)
Time: 19:13:04
(UTC+00:00)
Language:

TBA - TO BE ASSIGNED - Orbit

View from above orbital plane
View from above orbital plane
View from above satellite
View from above satellite

Ground track
Ground track

The orbit is defined by the following mean orbital elements,

1 67427U          26145.52186993 +.00000000 +00000-0 +16618-2 0 00004
2 67427  43.0011 164.3593 0001636 253.4419 106.6254 15.27612175    03
Epoch (UTC): 25 May 2026 12:31:29
Eccentricity: 0.0001636
inclination: 43.0011°
perigee height: 482 km
apogee height: 484 km
right ascension of ascending node: 164.3593°
argument of perigee: 253.4419°
revolutions per day: 15.27612175
mean anomaly at epoch: 106.6254°

The dashed part of the orbit path shows where the satellite is in the earth's shadow,  

DLR